map of MSZ home
MSZ - Airport
Location
City:  Namibe, Namibe, Angola
ICAO:FNMO
IATA:MSZ

Details
Type:Airport (Aerodrome, Airfield)
Latitude:1515'40"S (-15.261221)
Longitude:1208'48"E (12.146756)
Datum:other
Elevation:210 ft (64 m)
Variation:7.33W (WMM2015 magnetic declination)
0.19 annual change
Runways:1
Longest:8202 × 148 ft (2500 × 45 m), paved

Time
Time Zone:UTC+1
Local Time:

Weather
METAR:FNMO 220800Z 35018KT 9999 FEW025 28/22 Q1013
TAF:FNMO 222300Z 2300/2312 03005KT 9999 FEW011 BKN015 PROB30
TEMPO 2302/2306 VRB03KT 7000 DZ SCT008 BKN012
BECMG 2309/2311 28015KT FEW020 SCT030

Related Locations
Nearby:
Farthest:PHHF: 11830 mi / 19038 km
Tern Island [French Frigate Shoals Airport], HI, US

Find:

   beyond  
but within

Other Information
Maps:
NOTAMs:
Links:
Sources:

  
flag of Angola   

Sectional Chart

Flight Planning
at skyvector.com

Satellite Image

Google Maps Satellite view

 

Copyright © 2004-2017 Karl L. Swartz. All rights reserved.
The Great Circle Mapper name and logo are trademarks of the Great Circle Mapper.
All other trademarks mentioned herein belong to their respective owners.
Please see credits for attibutions and further copyright information.

  Follow gcmap on Facebook Follow gcmap on Twitter Follow gcmap on Google+ GCmap on LinkedIn

hCard Microformat

Geo Microformat